When you browse on this site, cookies collect data to enhance your experience and personalize the content and advertising you see.
Visit our Privacy Policy to learn more. By continuing to use the site, you agree to this use of cookies and data.

Hourly Weather Zastenok

Today, 11 July, Saturday

Time Temperature Precipitation Wind Pressure Humidity
00:00 +20°C° 0.1 mm 4 mps 748 mmHg 94%
01:00 +20°C° 0.1 mm 4 mps 748 mmHg 94%
02:00 +20°C° 0 mm 4 mps 748 mmHg 95%
03:00 +20°C° 0.2 mm 4 mps 748 mmHg 95%
04:00 +19°C° 0.2 mm 4 mps 748 mmHg 95%
05:00 +19°C° 0.2 mm 4 mps 748 mmHg 95%
06:00 +20°C° 0.2 mm 4 mps 748 mmHg 92%
07:00 +21°C° 0.2 mm 4 mps 749 mmHg 90%
08:00 +24°C° 0 mm 3 mps 749 mmHg 87%
09:00 +25°C° 0 mm 3 mps 749 mmHg 82%
10:00 +25°C° 0 mm 2 mps 749 mmHg 78%
11:00 +26°C° 0 mm 2 mps 750 mmHg 74%
12:00 +26°C° 0.4 mm 2 mps 750 mmHg 75%
13:00 +26°C° 0.4 mm 3 mps 750 mmHg 76%
14:00 +26°C° 0 mm 4 mps 750 mmHg 79%
15:00 +25°C° 0.4 mm 4 mps 750 mmHg 78%
16:00 +25°C° 0.4 mm 5 mps 750 mmHg 78%
17:00 +23°C° 0.4 mm 5 mps 750 mmHg 78%
18:00 +22°C° 0.3 mm 5 mps 750 mmHg 81%
19:00 +20°C° 0.3 mm 4 mps 750 mmHg 85%
20:00 +18°C° 0.3 mm 4 mps 750 mmHg 88%
21:00 +18°C° 0.1 mm 4 mps 750 mmHg 87%
22:00 +17°C° 0.1 mm 4 mps 751 mmHg 86%
23:00 +15°C° 0.1 mm 4 mps 751 mmHg 85%

Tomorrow, 12 July, Sunday

Time Temperature Precipitation Wind Pressure Humidity
00:00 +15°C° 0.2 mm 4 mps 751 mmHg 85%
01:00 +14°C° 0.2 mm 4 mps 751 mmHg 86%
02:00 +14°C° 0.2 mm 4 mps 751 mmHg 86%
03:00 +14°C° 0.1 mm 4 mps 751 mmHg 86%
04:00 +13°C° 0.1 mm 4 mps 751 mmHg 86%
05:00 +13°C° 0.1 mm 5 mps 751 mmHg 86%
06:00 +12°C° 0.4 mm 5 mps 751 mmHg 89%
07:00 +12°C° 0.4 mm 5 mps 751 mmHg 91%
08:00 +10°C° 0.4 mm 6 mps 751 mmHg 94%
09:00 +10°C° 0.7 mm 5 mps 751 mmHg 94%
10:00 +10°C° 0.7 mm 5 mps 752 mmHg 95%
11:00 +9°C° 0.7 mm 5 mps 752 mmHg 95%
12:00 +9°C° 1.7 mm 5 mps 752 mmHg 95%
13:00 +10°C° 1.7 mm 4 mps 752 mmHg 95%
14:00 +10°C° 1.7 mm 4 mps 753 mmHg 95%
15:00 +11°C° 0.7 mm 4 mps 752 mmHg 93%
16:00 +12°C° 0.7 mm 3 mps 752 mmHg 90%
17:00 +13°C° 0.7 mm 3 mps 752 mmHg 88%
18:00 +14°C° 0 mm 2 mps 752 mmHg 89%
19:00 +14°C° 0 mm 1 mps 752 mmHg 90%
20:00 +13°C° 0 mm 1 mps 752 mmHg 91%
21:00 +13°C° 0 mm 1 mps 752 mmHg 92%
22:00 +12°C° 0 mm 1 mps 752 mmHg 93%
23:00 +10°C° 0 mm 2 mps 752 mmHg 94%

Day after tomorrow, 13 July, Monday

Time Temperature Precipitation Wind Pressure Humidity
00:00 +10°C° 0 mm 2 mps 752 mmHg 94%
01:00 +10°C° 0 mm 2 mps 752 mmHg 95%
02:00 +10°C° 0 mm 3 mps 752 mmHg 96%
03:00 +9°C° 0 mm 3 mps 752 mmHg 96%
04:00 +9°C° 0 mm 3 mps 752 mmHg 96%
05:00 +9°C° 0 mm 3 mps 751 mmHg 96%
06:00 +11°C° 0 mm 3 mps 752 mmHg 90%
07:00 +12°C° 0 mm 4 mps 752 mmHg 83%
08:00 +14°C° 0 mm 4 mps 752 mmHg 77%
09:00 +15°C° 0 mm 4 mps 752 mmHg 72%
10:00 +17°C° 0 mm 4 mps 751 mmHg 68%
11:00 +18°C° 0 mm 4 mps 751 mmHg 63%
12:00 +18°C° 0 mm 4 mps 751 mmHg 62%
13:00 +19°C° 0 mm 4 mps 751 mmHg 61%
14:00 +19°C° 0 mm 4 mps 751 mmHg 60%
15:00 +19°C° 0.1 mm 4 mps 750 mmHg 62%
16:00 +19°C° 0.1 mm 4 mps 750 mmHg 64%
17:00 +19°C° 0.1 mm 4 mps 750 mmHg 66%
18:00 +18°C° 0 mm 3 mps 750 mmHg 72%
19:00 +16°C° 0 mm 2 mps 750 mmHg 78%
20:00 +15°C° 0 mm 2 mps 750 mmHg 84%
21:00 +14°C° 0 mm 2 mps 750 mmHg 87%
22:00 +13°C° 0 mm 2 mps 750 mmHg 90%
23:00 +12°C° 0 mm 2 mps 750 mmHg 93%

14 July, Tuesday

Time Temperature Precipitation Wind Pressure Humidity
00:00 +12°C° 0 mm 2 mps 750 mmHg 94%
01:00 +12°C° 0 mm 2 mps 750 mmHg 95%
02:00 +10°C° 0 mm 2 mps 750 mmHg 96%
03:00 +10°C° 0 mm 2 mps 750 mmHg 96%
04:00 +10°C° 0 mm 2 mps 750 mmHg 96%
05:00 +10°C° 0 mm 2 mps 750 mmHg 97%
06:00 +13°C° 0 mm 2 mps 750 mmHg 91%
07:00 +15°C° 0 mm 2 mps 750 mmHg 85%
08:00 +16°C° 0 mm 2 mps 750 mmHg 80%
09:00 +18°C° 0 mm 2 mps 750 mmHg 74%
10:00 +19°C° 0 mm 3 mps 750 mmHg 68%
11:00 +21°C° 0 mm 3 mps 750 mmHg 63%
12:00 +21°C° 0.2 mm 3 mps 750 mmHg 63%
13:00 +21°C° 0.2 mm 3 mps 750 mmHg 64%
14:00 +21°C° 0.2 mm 3 mps 750 mmHg 65%
15:00 +21°C° 0.2 mm 3 mps 750 mmHg 65%
16:00 +21°C° 0.2 mm 3 mps 749 mmHg 66%
17:00 +21°C° 0.2 mm 3 mps 749 mmHg 67%
18:00 +20°C° 0 mm 2 mps 749 mmHg 73%
19:00 +18°C° 0 mm 2 mps 749 mmHg 79%
20:00 +17°C° 0 mm 2 mps 749 mmHg 85%
21:00 +16°C° 0 mm 2 mps 750 mmHg 88%
22:00 +15°C° 0 mm 2 mps 750 mmHg 90%
23:00 +14°C° 0 mm 2 mps 750 mmHg 93%

15 July, Wednesday

Time Temperature Precipitation Wind Pressure Humidity
00:00 +14°C° 0 mm 2 mps 750 mmHg 93%
01:00 +13°C° 0 mm 2 mps 750 mmHg 94%
02:00 +13°C° 0 mm 2 mps 750 mmHg 94%
03:00 +13°C° 0 mm 2 mps 750 mmHg 95%
04:00 +12°C° 0 mm 2 mps 750 mmHg 95%
05:00 +12°C° 0 mm 2 mps 750 mmHg 95%
06:00 +14°C° 0 mm 2 mps 750 mmHg 89%
07:00 +16°C° 0 mm 1 mps 750 mmHg 83%
08:00 +19°C° 0 mm 1 mps 750 mmHg 77%
09:00 +20°C° 0 mm 1 mps 750 mmHg 72%
10:00 +22°C° 0 mm 1 mps 750 mmHg 67%
11:00 +23°C° 0 mm 1 mps 750 mmHg 62%
12:00 +24°C° 0.2 mm 1 mps 750 mmHg 61%
13:00 +24°C° 0.2 mm 1 mps 749 mmHg 59%
14:00 +24°C° 0.2 mm 1 mps 749 mmHg 58%
15:00 +24°C° 0.6 mm 2 mps 749 mmHg 60%
16:00 +24°C° 0.6 mm 2 mps 749 mmHg 63%
17:00 +23°C° 0.6 mm 2 mps 749 mmHg 66%
18:00 +21°C° 0.2 mm 2 mps 749 mmHg 71%
19:00 +19°C° 0.2 mm 2 mps 749 mmHg 76%
20:00 +18°C° 0.2 mm 2 mps 749 mmHg 81%
21:00 +17°C° 0 mm 2 mps 749 mmHg 81%
22:00 +16°C° 0 mm 2 mps 749 mmHg 82%
23:00 +14°C° 0 mm 2 mps 749 mmHg 82%

16 July, Thursday

Time Temperature Precipitation Wind Pressure Humidity
00:00 +14°C° 0 mm 2 mps 749 mmHg 83%
01:00 +13°C° 0 mm 1 mps 748 mmHg 83%
02:00 +13°C° 0 mm 1 mps 748 mmHg 84%
03:00 +13°C° 0 mm 1 mps 748 mmHg 85%
04:00 +13°C° 0 mm 1 mps 748 mmHg 86%
05:00 +13°C° 0 mm 1 mps 748 mmHg 87%
06:00 +15°C° 0 mm 1 mps 748 mmHg 82%
07:00 +18°C° 0 mm 1 mps 748 mmHg 77%
08:00 +20°C° 0 mm 1 mps 748 mmHg 72%
09:00 +21°C° 0 mm 1 mps 747 mmHg 66%
10:00 +22°C° 0 mm 1 mps 747 mmHg 61%
11:00 +23°C° 0 mm 1 mps 747 mmHg 55%
12:00 +24°C° 0 mm 1 mps 747 mmHg 53%
13:00 +24°C° 0 mm 1 mps 746 mmHg 51%
14:00 +25°C° 0 mm 1 mps 746 mmHg 49%
15:00 +25°C° 0 mm 1 mps 746 mmHg 51%
16:00 +24°C° 0 mm 1 mps 745 mmHg 53%
17:00 +24°C° 0 mm 1 mps 745 mmHg 55%
18:00 +23°C° 0 mm 1 mps 745 mmHg 60%
19:00 +21°C° 0 mm 1 mps 745 mmHg 66%
20:00 +19°C° 0 mm 1 mps 744 mmHg 72%
21:00 +18°C° 0 mm 1 mps 744 mmHg 72%
22:00 +18°C° 0 mm 1 mps 744 mmHg 72%
23:00 +16°C° 0 mm 1 mps 744 mmHg 72%
Show more